Location: Aalen
(48.8330°N, 10.1000°E)
Time: 06:49:48
(UTC+02:00)

UWE-3 - Pass Details

Date: 02 April 2023
Orbit: 576 x 670 km, 97.7° (Epoch: 29 May)

Event Time Altitude Azimuth Distance (km) Brightness Sun altitude
Rises 05:29:36 0° 3° (N) 2,985 ? -14.4°
Reaches altitude 10° 05:32:10 10° 350° (N) 2,054 ? -14.1°
Maximum altitude 05:35:45 24° 297° (WNW) 1,319 ? -13.5°
Enters shadow 05:37:25 19° 264° (W) 1,497 ? -13.3°
